Regional Weather Roundup
Issued by NWS

Home | Current Version | Previous Version | Graphics & Text | Print | Product List | Glossary On
Versions: 1 2 3 4 5 6 7 8 9 10 11 12 13 14 15 16 17 18 19 20 21 22 23 24 25 26 27 28 29 30 31 32 33 34 35 36 37 38 39 40 41 42 43 44 45 46 47 48 49 50
000
ASUS43 KBIS 141920
RWRND

NORTH DAKOTA REGIONAL WEATHER ROUNDUP
NATIONAL WEATHER SERVICE BISMARCK ND
200 PM CDT SUN SEP 14 2014

NOTE: "FAIR" INDICATES FEW OR NO CLOUDS BELOW 12,000 FEET WITH NO
SIGNIFICANT WEATHER AND/OR OBSTRUCTIONS TO VISIBILITY.


NDZ001>003-009>011-017-142000-
NORTHWEST NORTH DAKOTA

CITY           SKY/WX    TMP DP  RH WIND       PRES   REMARKS
WILLISTON      SUNNY     58  32  37 NE6       30.17F
MINOT          CLOUDY    52  35  52 N5        30.15F
MINOT AFB      PTSUNNY   52  36  54 NW8       30.15F
$$

NDZ018>021-031>035-040>046-142000-
SOUTHWEST NORTH DAKOTA

CITY           SKY/WX    TMP DP  RH WIND       PRES   REMARKS
BISMARCK       MOSUNNY   57  36  45 VRB5      30.17F
DICKINSON      SUNNY     55  33  43 N6        30.15F
GARRISON         N/A     55  35  47 N6        30.16F
HETTINGER ARPT CLOUDY    54  32  43 E9        30.17F
$$

NDZ004>008-012>016-024-026-027-054-142000-
NORTHEAST NORTH DAKOTA

CITY           SKY/WX    TMP DP  RH WIND       PRES   REMARKS
GRAND FORKS    CLOUDY    55  43  63 NW9       30.11S
GRND FRKS AFB  CLOUDY    56  43  62 N8G16     30.12S
DEVILS LAKE    CLOUDY    54  36  50 NW13      30.12S
$$

NDZ022-023-025-028>030-036>039-047>053-142000-
SOUTHEAST NORTH DAKOTA

CITY           SKY/WX    TMP DP  RH WIND       PRES   REMARKS
FARGO          PTSUNNY   58  44  60 NW9       30.12S
JAMESTOWN      CLOUDY    51  42  71 NW10      30.15F
$$



USA.gov is the U.S. government's official web portal to all federal, state and local government web resources and services.